RH
77 77 78 79 81 81 81 81 79 78 77 79 81 81 79 81 83 84 83 82 83 83 85 87 87 86 85 83 82 81 81 81 78 73 65 61 49 38 35 39 43 45 47 49 51 52 53 53 54 55 56 55 55 55 56 54 49 42 34 31 37 49 67 80 84 83 81 80 80 81 81 80 81 82 83 83 83 83 85 84 84 85 84 85 84 84 83 86 85 83 81 80 80 80 80 81 83 85 85 86 86 87 88
77 79 82 82 82 82 82 82 83 82 81 83 84 84 82 84 85 85 84 84 85 87 88 87 88 88 87 87 86 85 86 84 82 79 73 66 55 42 33 36 39 44 48 51 53 53 54 54 56 57 57 56 56 56 57 58 57 53 46 39 34 37 55 75 81 81 81 79 79 80 80 80 81 82 81 82 82 82 83 84 84 84 84 84 84 83 82 86 87 88 87 86 85 83 82 80 79 80 85 84 84 85 87
81 82 82 81 82 83 83 84 85 85 85 85 84 83 83 85 86 86 86 85 85 86 88 86 87 89 88 88 87 87 87 85 82 78 74 67 59 50 42 40 39 39 43 48 52 55 55 56 57 58 58 58 57 57 58 60 60 59 54 49 43 40 48 72 80 81 83 80 80 81 80 81 82 81 81 82 83 83 82 83 84 84 83 83 83 83 82 84 86 87 89 89 88 87 86 84 82 80 82 83 84 85 84
84 82 80 82 83 84 84 85 84 83 81 82 82 83 83 84 85 85 87 87 87 87 87 86 87 88 88 88 87 85 84 86 83 77 68 63 58 53 51 49 46 43 40 42 48 54 56 57 58 60 60 60 59 58 59 61 62 62 59 54 50 46 47 72 79 80 84 81 81 81 80 81 81 81 81 82 83 82 81 82 82 83 85 85 85 84 83 83 83 83 86 86 88 90 88 88 87 85 84 82 82 82 82
87 86 86 86 84 82 83 84 85 85 85 85 83 83 84 84 86 87 89 89 89 89 89 88 88 87 87 85 85 86 87 83 76 69 64 62 60 58 54 52 51 49 46 43 45 51 58 59 60 61 62 62 62 61 60 62 63 63 60 56 53 50 46 72 80 80 84 82 81 80 81 80 80 80 81 83 83 83 82 82 82 82 85 85 84 84 84 84 84 83 83 84 84 84 87 87 88 89 87 86 84 82 81
88 88 88 88 87 86 87 84 83 85 86 87 87 87 86 85 87 89 91 91 90 89 89 88 88 87 86 81 82 82 78 71 69 69 69 69 68 65 59 54 52 51 51 49 48 51 59 60 62 63 64 64 64 63 62 62 63 62 60 56 55 53 48 71 79 80 84 83 82 82 82 81 81 81 81 84 85 84 83 84 84 84 84 84 83 83 84 83 84 84 84 84 84 84 84 86 87 88 90 89 88 87 85
86 86 86 87 88 88 88 88 87 86 85 87 88 89 89 88 88 89 91 92 91 90 88 88 88 87 85 82 75 69 69 68 70 73 75 74 72 70 65 57 54 53 54 54 54 56 61 62 63 64 66 66 67 66 65 63 63 62 59 58 59 58 53 74 80 81 85 80 80 82 81 81 82 82 82 85 85 84 83 83 83 84 85 85 85 83 82 81 83 84 83 84 85 85 86 84 85 87 90 88 88 89 89
86 87 87 88 89 89 89 88 87 87 87 88 88 88 89 88 89 90 89 91 90 88 89 88 87 85 82 81 74 67 66 71 75 77 77 76 75 73 69 62 58 56 58 60 61 63 66 66 67 67 68 68 68 68 68 67 66 65 63 63 63 64 64 77 84 85 83 81 82 82 81 82 82 82 83 85 85 84 83 84 85 87 88 88 87 85 83 83 82 81 83 83 84 85 86 85 83 82 84 84 84 85 87
83 85 88 89 90 89 87 88 88 88 89 87 87 88 89 89 89 87 84 87 87 87 88 87 84 81 78 76 74 73 72 75 77 77 77 76 76 74 71 66 62 61 63 65 67 68 69 69 70 70 70 69 68 68 70 70 70 70 69 68 68 71 78 82 84 83 81 83 83 83 82 82 82 82 84 86 86 86 85 85 86 86 86 87 86 84 84 82 82 83 83 83 83 85 87 86 85 83 82 81 82 85 85
76 79 83 84 86 88 89 86 87 89 88 87 87 89 90 90 89 88 87 87 86 85 84 82 79 76 72 73 74 75 75 76 77 76 76 76 75 74 72 69 67 67 68 69 70 70 70 70 70 70 70 69 68 68 71 73 74 74 73 72 73 76 84 81 82 82 82 83 83 83 82 82 82 82 85 85 86 86 84 85 85 84 83 84 84 82 80 81 82 83 84 84 85 86 87 86 86 85 83 82 80 80 84
67 69 71 73 76 79 82 83 84 85 84 84 86 88 89 86 85 84 82 81 80 78 75 73 71 69 70 73 75 77 78 79 78 78 76 76 75 74 72 70 70 71 71 71 71 70 70 70 69 69 69 69 68 68 71 73 74 75 75 73 75 78 81 79 79 81 82 83 82 82 82 82 82 83 84 84 84 84 84 84 83 83 84 84 83 82 81 81 83 84 84 83 84 85 84 84 84 84 83 82 82 82 83
60 61 62 64 67 69 72 73 74 75 77 79 82 84 85 80 75 73 72 72 70 69 66 66 66 68 72 75 77 79 81 81 81 80 78 76 75 74 73 71 71 72 72 72 71 70 69 69 69 69 70 69 67 67 70 71 73 74 74 74 76 80 82 78 78 79 80 81 82 82 81 82 82 83 83 82 83 84 85 83 83 84 84 85 84 83 83 83 83 84 85 84 83 82 82 81 81 81 81 81 81 82 82
58 59 61 62 63 64 66 66 66 67 67 69 71 73 73 71 69 68 68 67 66 65 66 68 70 72 73 75 76 78 80 81 81 81 79 76 75 74 72 71 70 70 72 71 70 70 69 68 68 68 69 69 67 65 67 69 70 72 73 73 76 80 79 76 75 77 80 80 80 80 81 81 81 81 82 81 82 84 85 83 83 83 83 84 84 85 85 85 84 85 85 84 83 82 81 81 81 81 79 80 80 80 81
61 62 64 64 64 64 65 66 67 68 68 68 69 70 70 71 71 71 71 70 70 70 71 72 73 73 73 73 74 75 76 77 78 78 77 75 74 73 72 71 70 69 71 70 70 69 69 68 68 68 69 67 65 64 66 67 68 70 71 71 75 78 77 74 73 76 80 80 79 79 80 80 80 81 82 82 83 83 84 83 83 83 83 82 83 84 85 85 84 84 84 83 83 83 82 81 80 80 81 81 81 82 83
63 65 67 67 67 68 70 71 73 74 75 74 73 74 76 78 78 77 75 75 75 75 75 74 73 72 72 72 71 71 72 72 73 73 73 72 71 71 70 70 69 68 69 69 68 68 68 68 68 68 67 65 63 62 65 66 67 69 70 69 73 77 75 71 71 73 78 79 79 79 80 81 82 82 83 83 82 82 83 83 83 83 84 81 82 83 83 82 81 81 83 82 82 83 84 83 82 82 83 83 83 84 84
66 66 69 69 70 70 72 75 77 79 80 77 76 76 77 79 80 79 77 76 76 76 76 74 72 71 71 70 70 70 70 69 69 69 70 70 69 68 68 68 67 68 68 67 67 67 67 67 67 66 64 60 60 62 66 66 66 67 68 68 72 76 73 68 68 70 76 79 80 81 80 82 82 82 83 83 82 82 83 84 84 83 85 82 81 82 82 81 80 80 82 83 83 83 85 85 84 84 85 84 84 84 83
68 68 70 72 72 71 73 77 79 82 84 78 76 76 78 78 80 80 78 76 76 76 76 74 72 70 69 69 70 70 70 68 67 67 68 68 67 66 65 65 65 66 66 65 65 65 65 66 66 64 60 56 58 62 66 65 65 66 66 66 70 73 71 66 65 68 76 79 80 80 79 81 82 82 83 82 82 82 82 84 83 82 84 81 81 82 84 82 81 81 80 83 84 85 85 86 85 85 85 86 86 85 83
69 69 72 75 74 73 74 77 80 84 85 78 76 77 78 78 79 79 78 77 76 75 75 74 73 70 68 68 69 69 68 66 65 65 66 66 66 64 63 62 63 63 64 63 63 62 63 64 64 62 57 55 58 63 65 64 64 63 62 63 67 70 68 62 62 66 74 77 78 79 79 79 80 81 82 82 82 82 79 82 82 81 83 81 81 82 83 83 84 83 82 83 83 84 83 84 84 84 84 85 85 85 85
70 70 74 77 77 75 74 77 81 85 87 79 76 77 78 78 78 78 77 76 75 75 74 73 72 70 68 67 67 66 64 63 63 64 64 63 63 63 62 61 61 61 62 61 61 60 61 61 62 61 57 56 58 61 62 61 60 59 58 59 62 64 62 57 55 60 72 74 75 76 78 78 78 79 81 82 82 82 79 81 81 80 81 81 80 80 81 82 83 83 83 84 83 83 82 82 83 83 83 83 83 84 86
70 70 75 79 80 79 77 79 83 87 88 81 78 77 76 76 75 75 77 76 75 74 72 72 71 70 68 66 64 62 60 61 62 62 61 61 60 60 60 60 60 60 60 60 59 59 59 59 60 60 58 56 57 58 57 56 56 55 54 54 56 57 55 51 46 50 71 76 75 74 76 76 77 78 80 79 80 82 80 80 79 79 79 80 78 77 79 80 82 83 83 84 84 83 82 83 83 83 83 82 82 83 84
72 73 78 84 86 86 85 86 88 89 88 82 78 76 74 74 73 73 76 76 75 73 71 71 69 67 64 63 61 59 58 59 60 60 59 59 59 59 60 60 60 60 60 59 58 57 57 57 57 57 57 55 54 53 52 51 51 50 50 50 51 51 49 45 39 42 66 74 78 79 77 76 76 77 81 79 80 81 80 79 78 78 79 80 78 77 79 80 81 81 82 82 82 82 81 83 83 83 82 81 82 83 82
76 78 83 89 90 89 88 89 89 89 87 82 79 76 71 70 69 70 74 75 72 69 66 65 63 61 60 60 60 59 59 59 59 59 59 58 57 57 58 59 60 60 59 58 57 56 55 54 54 54 53 52 51 50 48 47 47 47 47 47 48 48 46 40 35 38 58 73 80 81 77 79 77 76 81 80 80 80 78 78 79 79 79 80 80 80 81 81 80 80 81 80 80 81 81 82 81 81 80 80 81 82 83
79 83 88 90 89 87 86 87 87 86 84 82 79 75 66 68 67 67 71 71 69 65 63 61 60 59 60 61 61 61 61 60 60 60 60 57 55 55 57 58 59 58 58 56 55 53 52 51 51 50 50 49 47 47 46 45 45 45 45 46 46 46 44 35 30 36 56 75 81 80 78 80 77 74 77 77 79 80 78 79 79 78 79 79 79 80 80 80 79 80 79 79 80 80 81 80 80 80 80 80 81 82 83
80 84 87 87 86 85 86 86 83 80 79 79 76 71 64 66 66 66 66 66 66 64 63 61 60 60 61 62 62 61 61 61 62 61 59 55 53 53 56 57 58 57 55 53 51 50 49 48 47 46 46 45 45 44 44 44 44 44 45 45 46 45 41 32 27 33 55 73 80 80 79 80 78 76 75 79 80 79 78 78 78 77 78 78 79 79 79 78 78 78 79 79 79 79 79 80 80 79 79 80 80 81 83
81 84 87 85 85 86 88 84 78 73 72 71 67 64 65 67 67 66 64 64 64 63 62 60 60 60 61 62 61 60 60 61 62 61 56 50 50 52 55 56 56 54 52 50 48 47 46 45 44 43 42 41 42 42 43 44 44 44 44 44 45 44 38 29 25 30 50 67 75 77 77 76 76 77 77 80 79 77 77 77 76 76 76 77 78 78 78 78 78 77 78 78 79 79 79 80 79 78 78 78 79 79 82
79 82 84 84 84 84 82 77 73 70 68 65 63 63 68 68 67 66 64 63 62 62 61 60 60 60 60 60 59 59 59 61 61 57 50 47 49 53 55 54 53 51 48 46 45 44 44 43 42 41 40 39 39 40 42 43 43 43 43 43 44 42 35 28 24 27 43 66 72 71 73 74 75 75 78 78 78 78 78 76 75 76 77 75 76 77 78 78 77 76 77 79 80 80 80 80 79 78 78 77 78 79 79
76 78 79 80 81 79 75 74 73 72 72 68 64 64 69 68 67 65 63 62 61 60 59 60 60 59 59 58 58 59 60 60 58 53 46 48 51 53 53 51 49 47 45 44 43 42 41 40 41 42 42 39 39 40 41 41 42 42 42 43 43 40 33 30 27 27 33 58 67 67 66 70 72 74 76 75 75 76 77 76 75 75 75 74 74 75 76 76 77 77 78 80 80 80 79 78 78 77 77 77 78 78 78
73 75 75 77 77 76 73 74 74 73 73 66 62 63 68 67 66 65 63 61 59 59 59 60 60 60 58 58 58 59 60 58 54 51 49 52 53 52 51 48 45 43 42 42 41 39 38 40 41 41 41 40 39 39 39 39 40 41 41 42 41 38 34 33 31 29 28 48 61 66 64 66 68 70 73 71 72 72 70 72 72 71 71 73 73 73 74 77 77 76 78 78 78 78 78 77 77 77 76 77 78 79 79
71 72 72 74 75 74 73 72 72 72 71 63 59 60 67 65 64 64 63 61 60 59 59 60 60 60 59 58 58 58 57 55 52 51 52 52 51 49 48 45 43 41 42 43 42 40 38 39 39 39 38 37 38 38 38 38 39 40 41 41 38 36 36 38 36 32 28 38 52 63 66 67 67 66 66 68 69 67 65 66 67 68 67 69 70 72 74 76 75 73 74 76 76 75 77 76 76 76 76 75 76 78 78
70 70 70 71 73 73 70 70 70 69 68 64 58 56 64 64 63 63 63 61 60 59 59 59 59 59 58 57 56 55 53 50 47 46 46 46 46 46 46 44 43 43 44 44 43 42 40 39 37 36 35 36 37 38 37 38 39 41 41 39 36 36 41 42 39 35 31 32 39 49 62 64 65 65 65 66 65 65 66 67 67 67 65 67 69 72 73 73 73 72 69 71 72 73 74 75 74 73 74 74 75 77 79
68 67 68 69 70 69 67 65 65 65 66 65 57 53 60 62 63 62 61 60 58 58 57 57 57 56 55 54 52 49 46 43 40 37 37 40 42 44 44 43 43 43 44 44 43 42 41 39 37 36 36 37 38 38 38 39 40 41 40 36 36 39 45 45 43 38 34 31 32 39 52 60 63 64 65 66 65 63 61 65 67 67 65 65 66 68 69 68 68 68 67 67 68 69 71 72 71 70 69 71 72 74 75
65 65 65 66 66 65 63 62 63 65 66 64 59 55 58 61 62 61 59 57 57 56 54 53 53 52 52 48 45 43 42 38 35 33 33 37 40 41 41 42 42 42 42 41 41 41 41 40 38 37 38 39 38 38 39 40 41 40 37 36 39 44 47 47 45 42 38 33 31 32 37 50 59 63 64 64 65 65 63 64 67 68 67 67 67 67 66 66 66 66 66 66 66 67 68 69 70 70 67 69 70 72 72
61 62 63 63 64 64 62 63 64 65 65 63 61 59 60 61 61 59 56 56 55 54 51 49 48 47 47 43 42 41 42 39 37 35 36 38 38 38 37 38 39 39 39 39 39 39 40 40 39 38 39 39 38 39 40 41 41 39 36 40 44 46 47 47 45 44 41 37 33 32 34 44 54 62 64 65 65 64 61 64 67 70 71 69 68 68 68 67 67 67 67 67 67 68 68 69 69 69 69 70 71 71 72
59 61 61 62 63 63 62 62 62 62 61 61 61 61 60 60 59 56 53 53 53 50 42 38 39 41 42 44 45 46 45 43 41 40 40 39 37 34 32 32 33 35 36 36 37 38 40 40 39 38 38 38 38 39 41 42 40 39 40 44 45 45 45 45 44 43 42 39 36 33 31 39 49 59 65 66 66 65 62 65 68 70 69 68 68 69 69 69 68 68 68 68 69 70 71 70 71 71 71 72 72 71 71
59 62 61 62 62 62 62 62 61 59 57 58 60 60 58 58 56 51 46 50 48 40 26 27 32 38 44 48 48 47 45 45 43 41 38 35 31 28 27 27 28 30 32 34 36 38 40 39 38 37 36 37 38 40 42 42 40 41 44 43 42 41 42 42 42 41 41 39 37 34 30 36 44 55 65 67 66 65 62 63 65 67 65 66 67 68 68 68 69 69 69 69 70 72 73 73 74 74 73 74 73 72 73
60 63 62 62 62 62 62 63 60 56 51 55 57 56 54 55 52 47 44 46 42 32 20 27 34 41 46 46 46 45 44 44 41 36 29 26 24 23 24 26 28 30 32 34 36 38 38 38 37 37 36 36 38 40 42 41 42 43 44 40 37 36 37 38 39 39 40 39 37 35 31 33 39 48 61 64 65 64 59 58 61 63 63 64 65 66 66 67 69 70 71 72 73 73 74 74 75 75 76 75 75 75 75
60 64 62 61 61 62 62 62 59 54 47 51 51 50 49 51 49 46 45 46 41 33 26 31 37 41 43 43 43 43 43 43 37 28 20 20 21 23 25 28 30 32 34 36 37 37 37 37 36 36 35 35 37 39 41 42 44 44 41 38 35 33 32 33 35 36 38 39 38 36 33 32 34 40 50 55 60 62 58 55 55 58 60 60 60 62 63 66 68 70 71 72 73 73 73 74 74 75 75 75 76 76 76
60 63 62 58 58 61 61 61 57 51 42 45 43 41 44 47 46 45 46 46 43 37 30 29 31 35 38 40 41 42 43 41 34 25 20 20 22 25 27 30 32 35 36 36 36 35 35 35 35 35 35 32 33 36 39 43 45 44 40 37 35 33 32 31 32 34 37 38 38 37 34 33 33 35 39 45 54 60 55 51 50 52 55 56 57 58 61 64 67 69 70 71 72 72 72 73 74 75 75 75 76 76 76
61 62 62 58 58 60 60 59 53 45 36 37 35 34 38 42 43 44 44 44 41 38 34 32 31 31 34 37 40 42 43 40 34 28 23 22 22 24 26 29 31 34 35 34 34 33 32 33 33 34 34 30 29 32 36 44 45 44 41 39 37 36 34 32 32 33 35 37 37 37 35 34 34 36 40 45 52 54 51 47 45 46 48 52 55 58 61 64 66 69 70 71 71 72 72 73 74 75 75 76 75 75 76
63 62 62 61 60 61 60 57 47 36 30 30 28 27 31 35 38 41 42 41 38 37 38 38 35 33 35 37 40 42 43 41 38 34 27 23 21 21 22 25 27 29 30 30 30 30 30 31 32 34 34 28 26 29 37 44 45 44 41 39 38 37 36 34 33 33 34 36 36 36 35 35 36 38 42 47 50 49 45 41 38 38 40 48 53 58 62 64 66 68 69 70 70 71 72 73 74 75 75 75 74 74 75
63 63 63 62 61 61 60 50 37 27 26 26 25 25 26 28 31 34 36 37 38 40 43 42 39 36 38 41 43 44 45 44 43 40 33 27 23 20 20 20 22 24 25 26 27 28 29 30 32 33 34 27 25 29 39 43 44 42 40 39 38 37 36 34 33 33 34 35 35 35 35 36 38 41 44 47 48 46 41 35 31 30 30 41 50 57 62 64 66 67 68 69 70 70 72 73 74 74 75 75 74 74 75
62 62 62 62 62 59 54 38 27 23 26 27 28 28 28 28 28 29 31 35 40 44 47 44 39 37 38 43 46 49 50 49 47 45 39 31 26 21 19 18 19 21 23 25 26 28 29 30 32 33 33 27 25 28 36 40 41 41 39 38 37 36 35 34 33 33 34 34 34 34 36 38 40 42 44 46 46 44 38 32 28 27 27 32 43 54 60 63 65 66 67 67 68 70 71 73 74 75 75 75 75 75 75
61 61 62 61 59 53 41 28 22 24 28 30 32 33 33 32 31 31 32 35 40 43 45 41 38 37 38 42 47 51 54 53 50 47 42 35 28 23 20 18 18 19 22 24 25 27 28 29 31 33 33 29 26 26 31 36 38 40 39 38 36 35 33 33 33 33 33 33 34 35 37 39 41 42 43 44 43 40 35 31 28 27 28 28 37 48 58 62 64 65 65 66 67 69 71 73 74 75 75 75 75 75 73
60 61 60 58 52 43 29 23 22 26 31 34 37 38 38 36 35 34 34 36 37 38 39 37 36 37 38 40 45 50 54 53 50 47 42 36 30 25 21 18 17 18 20 22 23 24 24 26 29 32 34 31 29 28 31 35 37 38 37 35 33 32 32 32 33 33 33 33 34 35 37 39 40 41 41 41 39 37 33 30 28 28 28 29 34 43 55 59 62 63 64 64 65 68 70 73 74 75 75 74 73 72 71
60 60 58 53 44 34 23 22 24 28 34 38 41 43 43 40 38 37 36 37 36 35 34 35 35 36 37 39 44 49 53 50 48 45 42 36 31 27 23 19 17 17 17 19 20 20 21 23 27 30 34 33 32 32 34 35 35 34 33 30 29 29 30 32 32 33 33 33 34 34 36 37 37 37 38 37 36 34 32 31 30 30 30 30 32 39 52 57 59 60 60 62 64 66 70 72 73 74 74 72 71 70 70
58 56 53 46 37 28 22 24 27 31 36 41 44 45 45 42 38 36 35 35 34 33 33 35 36 36 38 41 44 47 49 47 45 43 39 35 31 28 24 20 18 16 16 16 17 19 19 21 24 29 34 34 34 34 34 32 30 29 26 25 25 27 30 31 32 32 33 33 33 33 34 34 34 35 35 35 35 34 33 32 32 32 32 32 33 37 48 53 55 56 57 60 62 65 69 71 72 73 72 71 69 69 69
54 51 46 38 32 26 23 25 29 33 38 43 45 46 45 41 36 32 31 31 31 31 34 36 37 38 40 43 45 45 45 45 42 39 35 33 31 29 26 22 19 17 15 16 19 21 20 21 25 30 36 35 34 33 31 28 26 23 21 22 24 27 29 30 31 31 31 32 32 32 33 33 34 34 34 35 35 35 34 34 34 35 35 35 35 36 42 46 48 49 52 57 61 64 67 68 70 70 71 70 69 69 68
51 45 39 33 29 26 24 27 30 35 39 43 45 45 43 38 33 30 32 31 31 31 33 36 39 40 40 43 44 44 44 42 38 35 34 33 31 29 27 24 21 18 15 18 23 26 25 25 29 34 36 34 32 30 27 23 21 20 21 22 24 26 27 28 28 28 29 29 30 31 32 33 34 34 35 35 35 35 35 36 36 37 38 38 37 37 38 39 38 39 42 52 58 62 64 65 66 68 69 70 69 68 68
47 40 34 30 28 27 25 27 30 34 38 43 45 44 41 35 32 32 35 35 33 31 32 35 37 39 39 41 42 41 40 36 33 32 35 35 34 30 26 25 23 20 16 20 27 32 30 31 33 34 33 31 29 26 21 19 19 20 22 23 23 24 24 24 25 25 26 27 28 30 31 32 33 34 34 34 34 34 35 36 37 39 40 40 40 39 38 37 36 35 34 47 55 59 61 61 63 64 67 69 69 69 69
43 36 30 28 28 28 26 27 28 30 34 39 40 39 36 33 33 36 39 41 38 34 30 31 32 34 36 36 36 34 31 30 31 33 36 37 37 36 33 27 24 21 18 20 28 35 33 32 32 31 29 26 22 19 16 18 20 23 23 23 23 22 23 23 24 24 25 26 28 29 30 31 32 32 32 32 33 33 34 36 37 39 40 40 40 40 39 38 37 36 33 44 51 55 56 58 60 62 64 67 69 70 70
39 31 26 27 28 29 27 27 27 27 29 32 33 34 34 36 37 39 42 44 41 36 31 28 29 31 33 31 29 27 26 31 35 38 39 40 40 40 41 34 28 23 20 19 25 33 35 32 30 28 24 18 15 14 15 19 22 23 23 22 22 22 23 23 24 25 26 27 28 29 29 30 31 31 31 31 32 33 34 35 37 38 39 39 39 39 39 39 38 37 35 39 44 48 51 54 57 59 62 65 68 70 70
35 27 23 26 28 29 28 28 27 26 26 28 31 34 37 40 42 42 43 44 41 38 34 28 28 29 32 28 24 23 28 35 39 41 41 41 39 38 37 34 32 34 38 25 24 28 30 25 20 16 12 12 14 16 19 22 23 23 22 22 22 22 23 24 25 27 28 28 28 29 29 30 30 30 30 30 31 32 34 35 36 37 37 38 38 38 39 39 39 38 37 36 35 35 38 48 54 57 60 64 68 70 70
34 26 23 25 28 29 30 29 28 27 27 28 31 36 41 45 46 46 46 45 43 41 38 31 27 26 29 24 21 22 30 36 41 42 40 39 36 33 34 48 46 41 46 37 32 27 20 16 16 18 20 21 22 22 22 22 22 22 22 22 22 22 23 25 27 28 29 29 29 29 29 29 29 29 28 29 30 32 33 35 35 36 36 37 37 37 38 38 38 37 37 36 35 34 33 41 49 55 60 64 66 67 67
33 26 24 26 28 30 30 29 29 29 28 28 32 37 44 48 50 50 49 47 45 43 41 35 28 24 26 21 19 21 30 36 40 42 40 37 34 35 40 64 72 69 62 47 32 23 22 25 27 28 26 25 24 24 23 22 22 22 23 23 23 24 25 27 28 29 29 29 29 29 29 28 28 27 28 29 30 32 33 34 34 35 35 36 36 37 37 37 37 37 36 36 36 36 36 39 46 54 60 63 64 64 63
33 26 25 27 28 30 30 29 29 29 30 30 34 39 46 50 52 52 49 48 46 43 40 34 26 21 21 19 18 21 30 36 38 38 37 36 34 35 39 67 80 76 54 45 35 27 25 33 34 30 25 23 23 23 24 23 24 24 25 25 25 25 26 28 28 29 29 28 28 27 27 26 26 26 27 28 30 31 32 32 33 34 35 35 35 36 36 36 36 36 36 37 37 37 37 40 47 55 59 60 61 61 60
34 27 26 28 29 30 31 30 30 30 30 30 34 41 48 51 52 51 50 48 44 40 37 30 23 17 16 17 17 20 28 34 35 33 31 32 33 35 33 51 53 46 41 39 37 37 42 42 41 36 25 21 21 22 23 24 25 26 27 26 26 26 27 28 28 28 27 26 26 25 24 24 24 25 27 28 28 29 30 31 32 33 34 34 34 34 35 35 35 36 36 37 38 38 38 41 48 54 56 56 57 58 58
36 28 27 29 30 31 33 32 30 30 30 29 34 42 51 53 52 51 49 45 40 36 33 28 21 15 14 16 18 20 23 26 28 28 26 27 31 36 38 35 38 39 33 33 36 42 48 46 43 36 25 21 20 20 21 23 24 26 27 27 26 26 26 26 26 25 25 24 23 22 22 23 24 25 26 27 28 28 29 30 31 32 32 32 33 33 33 34 35 36 37 38 38 39 38 42 47 52 53 53 55 57 58
38 29 27 29 32 33 34 33 32 31 30 29 33 39 50 51 49 47 43 38 35 32 31 25 19 15 13 16 19 22 24 25 25 25 24 25 29 35 41 43 40 36 31 34 38 42 45 50 47 41 35 27 21 19 20 21 23 24 26 26 26 26 25 25 24 23 22 22 22 22 23 24 25 26 26 27 27 28 29 29 30 30 30 31 31 32 33 34 35 36 37 38 38 39 38 44 47 49 50 52 54 56 58
42 31 28 31 33 35 36 35 33 32 31 30 31 34 41 43 43 40 37 33 31 30 29 24 19 14 14 17 20 23 25 26 25 24 22 25 29 34 39 44 46 47 46 42 40 41 42 43 48 52 48 35 26 20 19 20 22 23 24 24 24 25 25 25 24 24 23 23 24 25 25 26 26 26 27 27 27 27 28 28 28 29 29 30 31 31 32 33 34 36 37 37 38 38 38 43 46 47 49 52 54 56 58
45 34 29 33 36 38 39 37 35 33 32 31 30 30 33 35 35 34 32 31 30 30 28 23 18 14 15 18 21 24 26 27 26 24 21 24 27 29 31 34 36 37 37 36 35 34 33 32 43 53 51 43 36 29 24 22 21 22 23 23 24 25 26 26 26 26 26 27 27 27 28 28 28 27 27 27 27 27 27 27 28 29 29 30 31 31 32 33 34 35 36 37 37 37 37 41 44 47 49 51 54 56 58
49 37 31 35 38 40 41 40 37 35 32 31 29 28 27 28 29 30 30 30 30 29 26 21 17 15 17 20 22 25 27 27 26 24 21 22 23 23 23 24 25 26 27 27 28 28 28 31 32 34 41 49 46 38 33 28 25 23 22 23 25 27 29 29 28 28 28 29 29 29 29 30 29 28 27 26 26 27 27 28 29 29 30 30 31 32 32 33 34 35 35 36 36 37 37 40 44 47 49 52 54 57 58
Wind_Speed
13 13 13 13 13 12 13 13 12 12 12 12 12 12 12 11 11 11 11 11 11 11 11 11 11 11 11 11 11 11 11 12 12 11 10 10 9 8 8 8 8 8 9 9 10 10 10 9 9 10 11 11 11 11 10 9 8 7 7 6 6 8 11 12 11 11 10 10 10 10 10 10 10 10 10 9 9 10 10 10 10 10 10 10 9 9 9 9 9 8 8 8 8 8 8 8 8 8 8 8 8 8 8
13 13 12 12 12 12 12 12 12 12 12 11 11 11 11 11 11 11 10 10 10 10 10 10 10 10 10 10 11 11 11 11 11 10 10 10 10 9 8 7 7 7 7 7 8 8 8 8 9 9 9 9 9 9 8 8 8 8 8 7 7 7 9 11 11 10 10 10 10 10 9 9 9 10 9 9 9 9 9 10 10 10 9 10 9 9 9 9 9 9 8 8 8 8 8 8 8 8 8 8 8 8 8
12 12 12 12 12 11 11 11 11 11 11 11 11 10 10 10 10 10 10 10 10 10 10 10 10 10 10 10 10 10 10 10 10 10 10 11 11 11 9 8 7 6 6 6 6 6 7 7 8 8 8 8 8 7 7 7 7 8 8 8 8 8 9 10 10 10 10 10 9 9 9 9 9 9 9 9 9 9 9 9 9 9 9 9 9 9 9 9 9 9 9 8 8 8 7 7 7 7 7 8 8 8 7
12 12 11 11 11 11 11 10 10 10 10 10 10 10 9 9 9 9 9 9 9 9 9 9 9 9 9 9 9 9 9 9 9 10 12 13 14 13 12 10 8 7 6 5 5 5 6 6 7 8 8 7 7 6 6 6 7 8 9 9 9 9 8 9 10 10 10 10 10 9 9 9 9 9 9 9 9 9 9 9 9 9 9 9 9 9 9 9 9 9 9 9 9 8 8 7 7 7 7 7 8 7 7
12 11 11 11 11 10 10 10 10 9 9 9 8 8 8 8 8 8 8 8 8 8 9 9 9 8 8 8 8 8 8 8 9 11 13 15 16 16 14 12 10 8 6 5 5 4 5 5 6 7 7 7 6 6 6 6 7 8 9 10 10 10 9 9 10 10 10 10 10 9 9 9 9 9 9 9 9 9 9 9 9 9 9 9 9 9 9 9 9 9 9 9 9 8 8 8 8 7 7 7 7 7 7
11 11 11 10 10 10 9 9 9 9 8 8 7 7 7 7 8 7 7 7 8 8 8 8 8 7 7 7 7 7 7 8 10 12 14 16 17 17 16 14 11 9 7 6 5 4 4 5 6 7 7 7 6 6 6 6 8 9 10 11 11 11 10 10 10 10 11 10 10 10 10 10 10 9 9 9 9 9 9 9 9 9 9 9 9 9 9 9 9 9 9 9 9 9 9 9 8 8 8 8 7 7 7
11 10 10 10 10 9 9 9 8 8 8 7 7 7 7 7 7 7 7 7 7 7 7 7 7 7 7 7 7 7 7 9 10 12 13 15 17 18 17 15 12 9 7 6 5 5 5 5 6 7 7 7 6 6 6 7 8 10 11 11 11 12 12 11 10 10 11 10 10 10 10 10 10 10 10 10 10 10 10 10 10 10 10 10 10 10 9 9 9 9 9 9 9 9 9 9 9 9 8 8 8 8 7
10 10 10 9 9 9 8 8 8 7 7 7 7 6 6 6 6 6 6 6 6 6 6 6 6 6 7 7 7 7 8 8 9 11 12 14 16 18 17 16 13 10 8 7 6 6 6 6 6 7 6 6 6 7 8 8 9 10 10 11 12 13 13 12 11 11 11 10 10 11 10 10 10 10 10 10 10 10 10 10 10 10 10 10 10 10 10 10 10 10 10 9 9 9 9 9 9 9 9 9 9 9 8
10 10 9 9 9 8 8 7 7 6 6 6 6 6 5 5 5 5 5 5 5 5 5 5 6 6 7 8 7 7 7 8 9 9 11 13 15 16 17 16 13 10 8 8 8 8 7 7 7 6 6 6 7 8 9 9 9 10 10 11 12 13 13 13 12 12 11 11 11 11 10 10 10 10 10 10 11 11 11 11 11 11 11 10 10 10 10 10 10 10 10 10 10 9 9 9 9 9 9 9 9 9 9
10 10 9 9 8 8 7 7 6 6 6 5 5 5 5 5 4 4 4 4 5 5 5 6 6 7 8 8 8 7 7 8 8 9 10 11 13 15 16 15 13 11 9 9 9 9 8 8 7 6 6 7 9 9 9 9 9 9 10 11 12 13 13 13 13 12 11 11 11 11 10 11 10 10 11 11 11 11 11 11 11 11 11 11 11 11 11 10 10 10 10 10 10 10 10 9 9 9 9 9 9 10 10
9 9 9 8 8 8 7 7 6 6 5 5 4 4 4 4 4 3 3 4 4 5 6 7 7 8 8 8 8 8 8 8 8 9 9 10 11 13 15 15 13 11 10 10 9 9 9 8 7 7 6 8 9 10 10 9 9 9 10 12 12 13 13 13 13 13 12 11 11 11 11 11 11 11 11 11 11 11 11 11 11 11 11 11 11 11 11 11 11 11 10 10 10 10 10 10 10 10 10 10 10 10 10
8 8 8 8 7 7 7 6 6 6 5 5 4 4 3 3 4 4 4 5 5 6 7 8 9 8 8 8 8 8 8 8 9 9 9 9 10 12 13 14 13 12 11 10 10 10 10 9 8 7 7 8 10 10 9 9 9 10 11 12 12 12 12 13 14 13 12 11 11 11 11 11 11 11 11 11 11 11 11 11 11 11 11 11 11 11 11 11 11 11 11 11 10 10 10 10 10 10 10 10 10 10 10
7 7 7 7 7 7 7 7 6 6 6 5 4 4 4 4 5 6 7 7 7 8 9 10 10 9 9 9 9 9 9 9 9 9 9 9 9 11 12 13 13 12 11 11 11 11 10 10 8 7 7 9 10 10 9 9 10 10 11 12 12 12 13 14 14 13 12 11 11 11 11 11 11 11 11 11 11 11 11 11 11 11 11 11 11 11 11 11 11 11 11 11 11 11 11 11 11 11 11 11 11 10 10
7 7 7 6 6 6 6 6 7 7 6 6 5 5 5 6 7 8 8 8 8 9 10 10 11 10 10 10 10 10 10 10 10 9 9 9 9 10 11 12 12 12 11 11 11 11 10 9 8 8 8 10 11 10 9 9 10 10 11 12 12 12 13 14 14 13 13 12 11 11 11 11 10 11 11 11 11 11 11 11 11 11 11 11 11 11 11 11 11 11 11 11 11 11 11 11 11 11 11 11 11 11 11
6 6 6 5 5 5 5 5 6 7 7 6 6 5 5 5 6 8 8 8 8 9 9 10 11 11 10 10 10 10 10 10 10 9 9 9 9 10 10 11 12 12 11 11 11 11 10 9 9 9 10 12 12 10 9 9 10 10 11 12 12 12 13 14 14 13 13 12 11 11 11 11 11 11 11 11 11 11 11 11 11 11 11 11 11 11 11 11 11 11 11 11 11 11 11 11 11 11 11 11 11 11 11
4 5 5 5 4 4 4 4 5 6 7 8 7 5 5 5 6 7 7 7 7 8 9 10 10 11 10 10 10 10 10 10 10 9 9 9 9 9 10 10 11 11 11 11 11 10 10 9 10 11 12 13 12 10 9 9 10 10 11 12 11 11 13 14 14 14 13 12 12 12 11 11 11 11 11 11 11 11 11 11 11 11 11 11 11 11 11 11 11 11 11 11 11 11 11 11 11 11 11 11 11 11 11
3 3 4 4 4 3 2 3 4 5 7 8 8 7 6 6 6 6 7 7 7 7 7 9 10 10 10 10 10 10 9 9 9 9 8 8 9 9 10 11 11 11 11 11 10 10 10 10 11 12 14 13 11 9 9 9 10 11 12 12 11 12 13 15 15 14 13 12 12 12 11 11 11 11 11 11 11 11 11 11 11 11 11 11 11 12 12 11 11 11 11 11 11 12 12 11 11 11 11 11 11 11 11
2 3 3 3 3 3 2 2 2 3 5 8 8 7 7 7 7 7 6 6 7 7 7 8 9 10 10 10 10 10 9 9 8 8 8 8 9 9 10 11 11 11 11 10 10 10 10 11 12 13 14 13 11 9 9 10 10 11 12 12 12 12 14 15 16 15 13 12 12 12 11 11 11 12 12 12 12 12 12 12 12 12 12 12 11 12 12 12 12 12 11 11 12 12 11 11 11 11 11 12 12 12 12
2 2 2 2 3 3 2 2 3 3 4 6 7 7 7 7 8 7 6 6 7 7 8 8 9 10 10 10 10 9 9 8 8 7 8 8 8 9 10 10 10 10 10 10 10 10 11 11 12 13 14 13 11 10 10 10 11 11 12 12 12 13 14 16 16 15 13 12 11 11 11 11 11 11 12 12 12 12 11 12 12 12 12 12 11 11 12 12 12 12 12 12 12 12 11 11 12 12 12 12 12 12 12
2 2 2 2 2 3 3 3 4 4 3 5 6 6 7 8 8 7 5 5 6 7 8 9 9 9 9 9 9 9 8 7 7 6 7 7 8 9 9 10 10 10 10 10 10 11 11 11 12 12 13 13 12 11 10 10 11 11 12 12 13 14 15 17 17 15 12 11 11 10 10 11 11 11 11 11 11 12 11 11 11 11 11 11 11 11 11 11 12 12 12 12 12 12 12 12 12 12 12 12 12 12 13
2 2 2 1 1 2 3 3 4 4 3 5 6 6 6 7 8 6 4 4 6 7 8 8 8 8 8 7 7 7 7 6 6 6 7 7 8 8 9 9 9 9 9 10 10 11 11 11 12 12 12 12 12 11 11 11 11 11 12 12 13 14 16 17 17 14 12 11 10 10 10 11 11 11 11 11 11 11 11 11 11 11 11 11 11 11 11 11 12 12 12 12 12 12 12 12 12 12 12 12 12 12 12
2 3 3 3 3 2 2 2 2 3 3 4 5 6 7 8 8 6 3 3 5 7 8 7 7 7 6 6 6 6 6 6 6 6 7 8 8 8 8 8 8 9 9 10 10 10 11 11 11 11 11 11 11 11 11 11 11 11 12 12 14 15 17 17 16 13 11 10 10 10 10 10 10 10 11 11 11 11 11 11 11 11 11 11 11 11 11 11 11 12 12 12 12 12 12 12 12 12 12 12 12 13 12
3 3 4 5 4 2 1 1 2 2 3 3 4 5 6 7 8 6 4 4 5 7 8 7 6 5 5 5 5 6 6 6 7 7 8 9 9 8 8 8 8 9 9 9 10 10 10 10 11 11 10 10 10 10 10 11 11 11 12 12 14 15 17 16 15 12 10 10 10 10 10 10 10 10 10 10 11 11 11 11 11 11 11 11 11 11 11 11 11 12 12 12 12 12 12 12 12 12 12 12 12 13 13
4 5 5 5 3 1 1 1 2 2 2 2 3 4 5 6 7 7 6 5 5 6 6 6 6 5 5 5 5 6 6 7 7 8 9 9 9 8 8 8 8 9 9 9 9 10 10 10 10 10 10 10 10 9 10 10 11 11 12 12 14 15 16 15 13 11 10 10 10 10 10 10 10 10 10 11 11 11 11 11 11 11 11 11 11 12 12 12 12 12 12 12 12 12 12 12 12 12 12 12 12 13 13
5 5 5 4 2 1 0 2 1 1 1 2 2 3 4 5 6 6 5 5 4 4 5 6 6 6 6 6 6 6 7 7 8 9 10 10 9 8 8 8 8 9 9 9 10 10 10 10 11 11 11 11 10 9 9 10 11 11 11 12 13 15 15 14 12 11 10 10 10 10 10 10 10 10 11 11 11 11 11 11 11 12 12 12 12 12 12 12 12 12 12 12 12 12 12 12 12 12 12 12 12 13 13
5 5 5 4 2 1 1 1 1 2 2 2 3 4 4 5 4 4 4 4 4 4 4 6 6 6 7 7 7 7 7 8 8 9 10 9 9 9 9 9 9 9 9 10 10 10 11 11 11 12 12 11 10 9 9 9 10 11 11 12 13 14 14 13 12 11 10 10 10 10 10 11 11 11 11 11 12 12 12 12 12 12 12 12 12 12 12 12 12 12 12 12 12 12 13 13 13 13 13 13 13 13 13
5 5 4 4 2 0 1 2 2 2 2 2 3 3 4 4 4 4 4 4 4 4 4 5 6 7 7 7 7 7 8 8 9 10 10 9 9 9 9 9 9 9 9 10 10 11 11 11 12 12 12 11 10 9 9 9 10 11 11 11 12 13 13 12 12 11 11 10 10 10 10 11 11 11 11 12 12 12 13 13 13 13 13 13 12 12 13 13 12 13 13 13 13 13 13 13 13 13 13 13 13 13 13
4 4 4 4 2 0 2 3 3 2 2 1 2 2 3 3 4 4 4 5 5 5 5 6 6 7 7 7 7 7 8 9 9 9 9 9 9 9 10 10 10 10 10 10 11 11 11 11 11 12 11 11 10 9 9 9 9 10 10 11 12 12 12 12 12 12 12 11 10 10 11 11 11 12 12 12 12 13 13 13 13 13 13 13 13 13 13 13 13 13 13 13 13 13 13 13 13 13 13 13 13 13 13
3 3 4 4 3 1 2 3 2 2 1 1 1 2 2 3 4 4 5 5 5 5 5 6 6 6 6 6 7 7 8 8 9 9 8 8 8 9 9 10 10 10 10 11 11 12 12 12 12 12 11 10 9 9 9 9 9 9 10 11 11 11 11 12 12 12 12 12 11 11 11 11 12 12 12 12 13 13 13 14 14 14 13 13 13 13 13 13 13 13 14 14 14 14 14 14 14 14 14 14 14 14 14
3 3 4 4 3 3 3 3 3 2 0 2 2 2 2 3 4 4 5 5 5 5 5 5 5 5 5 5 6 6 7 8 8 8 8 7 7 8 9 10 10 11 11 11 12 12 13 13 13 12 10 9 8 9 9 8 8 8 9 10 10 10 11 12 12 12 12 13 13 12 12 12 12 12 12 13 13 14 15 15 15 14 14 14 14 14 14 14 14 14 14 14 14 14 15 14 14 14 14 14 14 14 15
4 3 4 4 4 4 4 3 2 1 1 3 3 2 2 3 3 3 4 3 3 3 3 4 4 4 4 5 5 6 7 8 8 8 7 7 7 8 9 10 10 11 11 11 12 12 13 13 13 12 10 9 8 8 8 8 7 8 9 9 10 10 11 12 12 12 13 13 13 13 13 13 12 12 13 13 14 15 16 16 16 15 15 15 14 14 14 14 14 15 15 15 15 15 15 15 15 15 15 15 15 15 15
5 5 4 5 5 5 4 3 2 0 1 3 3 3 2 2 2 2 2 2 2 3 3 3 3 4 4 5 5 6 7 8 9 8 8 8 8 9 9 10 10 10 11 11 11 12 12 13 13 11 10 9 8 8 8 7 7 8 8 9 9 10 11 11 12 12 13 14 14 15 14 14 13 12 13 14 15 16 17 17 17 16 16 15 15 14 14 14 15 15 15 16 16 16 16 15 15 15 15 15 15 16 16
6 5 5 5 5 4 3 3 2 1 1 2 2 2 1 1 1 2 2 2 2 3 3 3 3 3 4 5 5 6 7 8 9 9 9 9 10 10 10 10 10 10 10 10 10 11 11 12 12 11 10 9 8 7 7 7 7 7 7 8 9 10 11 11 11 12 13 14 15 15 16 15 13 13 13 14 15 16 17 18 18 17 16 15 15 15 15 15 15 16 16 16 16 16 16 16 16 16 16 16 16 16 16
6 6 5 5 5 4 4 3 2 1 0 1 1 1 0 1 1 1 1 1 1 3 4 4 3 2 3 4 5 6 7 8 9 10 10 11 11 12 12 11 11 10 10 10 9 10 10 11 11 11 10 9 8 7 6 6 6 6 6 7 9 10 10 10 11 12 12 13 15 16 16 16 14 13 13 14 15 16 18 18 18 17 17 16 16 15 15 16 16 16 16 16 17 16 16 16 16 16 16 16 16 16 16
7 6 6 5 5 4 4 3 3 2 1 1 1 1 0 0 1 1 0 0 1 3 4 3 2 1 3 4 4 5 6 8 9 10 11 12 12 12 12 11 10 9 9 9 9 9 10 11 11 10 9 8 7 6 5 5 5 5 6 7 7 8 9 10 10 11 12 13 14 16 17 16 15 13 13 14 15 16 18 18 18 18 17 17 16 16 16 16 17 17 17 17 17 17 17 17 17 17 17 16 16 16 16
8 7 6 6 5 5 4 3 3 3 2 2 2 1 1 1 0 0 0 0 1 3 5 3 2 2 2 3 4 4 6 6 8 10 12 12 12 11 10 9 8 8 8 8 9 9 10 11 11 10 10 8 7 5 4 4 4 4 5 5 6 7 8 9 10 11 12 13 14 15 17 17 16 14 13 13 15 16 17 18 19 18 18 17 17 17 17 17 17 17 17 17 17 17 17 17 17 17 17 17 16 16 16
8 7 6 5 5 5 4 4 3 3 3 2 2 2 2 2 1 1 0 0 1 3 5 5 3 2 2 2 3 4 5 6 8 10 13 13 12 10 9 8 8 8 9 10 10 10 11 11 11 10 10 9 7 5 3 2 3 3 3 4 4 6 8 9 10 11 11 12 14 15 16 17 16 14 13 13 14 16 17 18 19 19 18 18 18 18 18 18 18 18 18 18 17 17 17 17 17 17 17 16 16 16 16
8 7 6 6 5 5 5 4 4 3 3 3 3 3 3 3 3 2 1 1 1 3 5 6 5 3 2 2 3 4 4 5 8 12 15 14 12 10 9 9 9 10 10 11 11 11 11 11 11 11 10 10 7 4 1 1 2 2 3 4 4 6 9 11 11 11 11 12 13 15 16 17 16 15 14 13 14 15 17 18 19 19 19 19 19 18 18 18 18 18 18 18 17 17 17 17 17 16 16 16 16 16 16
8 7 7 6 6 6 6 5 4 4 3 3 3 3 4 4 4 3 2 1 1 2 4 6 6 5 3 2 2 3 4 5 8 12 15 15 13 11 11 10 10 11 11 11 11 11 11 11 10 10 11 10 7 3 0 1 1 3 4 5 6 8 10 12 12 12 12 12 13 14 15 16 16 15 14 13 13 14 16 18 19 20 19 19 19 19 18 18 18 18 18 18 17 17 17 17 16 16 16 16 16 16 16
8 8 7 7 7 7 7 6 5 4 4 3 4 4 4 4 4 3 2 1 0 2 4 6 7 6 5 4 3 2 3 5 7 11 15 15 14 13 13 12 12 11 11 11 11 11 10 10 10 10 10 9 6 1 1 1 2 3 5 6 7 9 11 12 13 13 12 12 13 14 15 15 15 15 14 13 13 15 17 19 21 21 21 20 19 19 19 18 18 18 18 18 17 17 17 17 16 16 16 16 16 16 16
9 9 8 8 8 8 7 6 5 4 4 5 5 6 5 5 4 3 2 1 0 2 4 5 6 6 6 5 4 3 4 5 7 11 14 15 15 15 15 14 13 11 11 10 10 10 9 9 8 9 9 8 5 1 1 1 2 4 6 7 9 11 12 13 13 12 12 12 13 13 14 14 14 14 14 13 14 15 18 21 22 23 22 20 19 19 19 18 18 18 18 18 17 17 17 17 17 16 16 16 16 16 16
10 10 9 9 9 8 7 6 5 5 6 7 7 7 6 6 5 4 3 2 1 1 3 4 5 6 6 5 5 5 5 6 8 10 13 15 16 17 16 15 13 11 10 9 9 9 8 8 7 7 7 7 5 2 0 1 3 5 7 9 10 12 14 14 13 12 11 11 12 13 13 13 13 13 14 14 15 17 19 22 24 23 22 21 20 19 19 18 18 18 18 18 17 17 17 17 17 17 17 16 16 16 15
11 11 11 10 9 8 6 6 6 6 7 7 7 6 5 5 5 5 4 4 3 2 2 3 4 5 5 5 5 5 6 7 8 10 13 15 16 17 17 15 13 11 9 8 8 8 8 7 6 6 6 6 5 3 2 3 5 7 8 10 12 13 14 13 12 11 11 11 11 11 11 12 12 13 13 14 16 18 21 23 24 23 22 21 20 19 19 18 18 18 18 18 17 17 17 17 17 17 16 16 16 15 15
12 12 11 11 10 8 7 6 7 7 8 7 6 4 3 3 3 4 4 4 3 2 2 3 4 4 5 5 5 5 5 6 8 10 13 15 16 17 17 15 13 11 9 8 8 8 7 6 5 4 4 4 5 4 4 5 6 8 9 11 12 13 13 12 11 10 10 10 11 11 11 11 12 13 14 15 17 19 21 23 23 23 22 22 21 20 19 18 18 18 18 18 17 17 17 17 17 17 16 16 16 15 15
13 12 12 11 10 8 7 7 8 8 8 7 5 4 2 2 2 2 2 3 2 2 2 3 4 5 5 5 4 4 4 6 8 10 13 15 16 17 17 15 14 12 11 10 9 8 7 5 4 3 3 3 4 4 4 5 7 8 9 11 12 12 12 11 10 10 10 11 11 11 11 12 13 14 15 16 18 20 21 22 23 23 22 22 21 20 19 18 18 18 18 18 18 17 17 17 17 16 16 16 15 15 15
13 13 13 11 10 9 8 8 9 9 9 8 6 5 3 2 1 1 1 1 2 2 2 3 5 5 5 4 4 4 5 6 9 11 13 14 15 16 16 15 14 14 14 12 10 7 5 4 2 1 1 1 2 3 4 6 7 8 10 11 11 10 9 9 9 10 10 11 12 12 13 14 15 15 17 18 19 20 21 22 22 22 22 22 22 21 19 19 19 19 18 18 18 17 17 17 17 16 16 15 15 15 15
14 13 13 11 10 9 9 9 9 10 9 9 8 6 5 3 2 2 2 2 2 2 3 4 4 5 5 4 3 4 5 7 9 11 12 13 14 15 15 14 14 15 15 13 10 7 4 2 1 2 2 1 1 2 4 7 8 10 10 10 10 9 8 8 8 10 11 12 12 13 14 14 15 16 17 18 18 19 20 21 21 21 21 21 22 21 20 20 19 19 19 18 18 17 17 17 17 16 16 15 15 15 15
14 13 13 12 11 10 10 10 10 10 10 9 8 8 7 5 3 3 4 3 3 3 3 3 3 3 3 3 2 3 5 7 9 10 11 13 14 14 14 13 14 14 15 12 10 7 5 5 5 6 5 3 0 3 7 9 10 10 10 9 8 7 7 8 8 10 11 11 12 13 13 14 14 15 16 17 17 18 19 20 20 20 20 21 21 21 21 21 21 21 20 19 18 18 17 17 17 16 16 16 15 15 15
14 14 13 12 12 11 10 10 10 10 10 9 9 8 7 5 4 4 4 4 4 4 3 3 2 2 2 2 2 2 5 7 8 10 10 12 15 16 15 13 12 12 15 12 9 8 8 8 8 7 4 1 3 7 10 11 10 10 9 8 8 8 8 9 9 10 11 11 12 12 12 13 13 14 15 16 17 18 19 19 20 20 19 19 20 20 21 21 22 22 21 19 18 18 18 17 17 17 16 16 16 15 15
15 14 14 13 13 12 11 10 10 10 10 9 9 8 7 6 6 5 4 4 3 3 3 3 2 2 2 2 2 3 5 6 8 10 9 11 12 12 12 12 10 10 14 11 8 8 9 9 8 5 2 5 8 11 11 10 9 9 9 9 9 9 10 10 11 11 12 12 12 12 12 12 13 14 16 17 18 19 19 19 19 19 19 19 19 19 20 21 21 22 21 20 19 18 18 18 17 17 17 16 16 16 16
15 15 15 14 13 12 11 10 10 10 9 9 9 9 8 7 6 5 5 4 3 2 2 3 3 3 2 2 2 3 5 6 8 9 7 9 10 9 7 7 7 9 12 10 7 8 9 8 5 2 5 10 12 11 9 8 8 8 9 10 10 11 12 12 12 12 13 12 12 12 12 13 14 15 17 18 19 19 19 19 19 19 19 19 19 19 19 20 21 21 21 20 19 18 18 18 18 17 17 17 16 16 16
15 15 15 14 14 12 11 10 9 9 9 10 10 10 9 8 7 6 6 5 4 3 2 2 3 3 3 2 2 3 4 5 7 8 8 9 9 9 7 5 4 4 5 7 4 4 5 3 2 8 14 16 13 9 7 6 7 9 10 11 11 12 12 13 13 13 13 13 13 13 14 14 15 17 18 19 19 19 19 19 19 19 19 19 19 19 19 20 20 21 21 21 20 19 18 18 18 18 17 17 17 17 17
16 16 16 15 13 13 12 10 10 9 9 10 10 10 9 8 7 7 6 6 5 3 2 1 2 2 3 2 2 3 3 4 6 7 9 9 9 7 6 3 2 1 2 2 3 3 1 2 7 15 19 15 9 6 6 7 8 9 10 11 11 11 12 12 12 12 13 13 13 14 15 15 17 18 19 19 19 19 19 19 19 19 19 19 19 19 19 20 20 21 21 21 20 19 18 18 18 18 18 17 17 17 17
16 16 16 15 14 13 12 11 10 9 9 9 10 10 9 8 7 7 7 6 6 4 3 2 1 1 2 2 3 3 3 3 4 6 7 9 8 6 3 1 0 0 1 2 1 2 4 5 10 16 17 11 6 5 7 8 9 10 10 10 10 10 11 11 12 12 12 13 14 15 16 17 17 18 19 19 19 19 19 19 19 19 19 19 19 20 20 20 20 21 21 21 20 18 18 17 17 18 18 17 17 17 18
16 17 16 15 14 13 12 11 10 10 10 10 10 9 9 8 8 8 8 7 7 6 5 4 2 1 1 2 3 3 4 3 3 4 5 7 7 6 2 1 1 3 3 3 1 1 3 6 12 14 12 7 6 7 9 10 10 9 9 9 10 10 11 11 12 12 13 14 15 16 17 18 18 19 19 18 18 19 19 19 19 19 19 20 20 20 20 20 21 21 21 20 19 18 18 17 17 17 17 17 17 18 18
17 17 17 16 15 14 12 11 10 10 10 10 10 10 9 9 9 9 9 9 8 7 6 5 4 2 1 1 2 3 4 3 2 2 3 5 5 4 3 2 1 1 2 2 1 2 3 6 9 7 6 6 7 9 10 10 10 9 9 10 10 10 11 12 12 13 14 15 16 17 18 18 19 19 19 19 19 19 19 19 19 19 20 20 20 20 21 21 21 21 20 19 19 18 18 17 17 17 17 17 18 18 19
17 18 18 17 16 14 13 12 11 11 11 11 11 11 11 11 11 11 11 10 10 9 7 6 4 3 2 1 1 2 3 3 2 1 2 3 3 2 2 1 1 2 2 2 2 2 3 6 4 2 5 9 10 9 10 10 9 9 9 10 10 11 11 12 13 14 16 17 18 18 18 18 18 18 19 19 19 19 19 20 20 20 20 20 21 21 21 21 20 20 19 19 18 18 18 17 16 17 17 17 18 19 19
18 19 19 18 17 15 14 13 12 11 11 12 12 13 13 14 14 14 13 12 11 9 7 6 5 4 3 2 1 1 2 2 1 1 1 1 1 1 2 2 2 3 4 4 4 4 4 4 2 1 4 9 11 10 8 8 9 9 10 11 11 11 12 13 15 16 17 18 18 18 18 17 17 17 18 19 19 20 20 20 20 20 20 20 20 20 20 20 19 19 19 18 18 18 17 17 16 17 17 18 18 19 19
18 19 20 19 18 16 15 14 13 12 12 12 13 14 15 15 15 14 13 12 11 9 7 6 5 4 4 3 2 1 1 1 0 0 1 0 1 2 3 3 4 5 5 7 7 7 5 2 1 1 1 3 8 11 11 9 9 10 11 12 12 12 13 15 16 18 18 17 17 17 17 17 16 17 18 19 19 20 20 20 20 20 19 19 19 19 19 19 19 18 18 18 18 18 18 17 17 17 18 18 19 19 19
19 20 20 20 18 17 16 15 14 13 13 13 14 15 15 15 15 14 13 12 10 8 8 7 6 5 4 4 3 2 2 1 1 1 1 1 2 2 3 5 6 6 7 8 9 9 8 6 4 2 1 1 3 6 10 12 12 12 12 12 13 14 15 17 17 17 16 16 16 16 17 17 17 17 18 19 20 20 20 19 18 18 18 18 18 18 18 18 18 18 18 18 18 18 18 17 17 17 18 18 19 19 19
19 21 21 21 19 18 18 17 16 15 14 14 14 14 15 15 14 14 13 12 11 9 9 8 7 7 6 5 4 3 2 2 2 1 1 1 2 3 4 5 7 8 8 9 10 10 11 11 11 9 6 3 2 3 4 9 13 14 14 13 13 15 17 18 17 15 15 15 16 16 16 17 17 18 19 20 20 19 19 18 17 16 16 17 17 17 18 18 18 18 18 18 18 19 19 18 17 17 18 18 18 19 19
Wind_Direction
97 96 95 94 92 91 89 87 86 83 81 80 79 78 76 74 73 72 70 68 66 65 63 61 59 58 55 52 50 49 47 45 43 40 39 40 46 56 62 66 68 69 69 70 72 73 70 60 50 42 35 31 27 24 20 18 21 30 41 43 43 45 46 35 27 24 24 23 22 22 22 22 23 23 22 21 21 20 20 21 21 20 20 18 18 19 18 18 19 19 19 18 18 18 17 17 17 17 17 18 18 19 20
99 98 96 94 93 91 89 87 86 84 82 80 79 77 75 73 72 70 67 65 64 63 61 59 57 56 53 51 49 46 43 41 39 36 33 33 37 43 48 51 53 55 58 62 68 73 74 68 60 53 45 37 31 27 21 15 8 9 19 26 28 34 38 28 22 20 17 17 16 16 16 16 16 16 16 15 14 14 13 14 15 14 14 13 12 12 13 12 13 14 14 14 14 14 14 13 12 12 11 11 11 12 12
101 99 96 94 92 90 88 86 85 83 82 80 77 75 73 71 70 68 67 64 62 60 59 57 55 53 51 49 46 44 41 39 36 32 29 28 30 33 36 38 39 40 43 49 58 68 74 72 64 56 50 42 35 28 21 13 2 357 3 12 16 21 27 20 16 13 11 11 11 10 10 10 11 11 10 9 9 8 6 7 7 8 7 6 6 5 5 6 6 8 8 9 9 8 8 8 7 7 7 6 6 6 6
101 99 97 95 92 90 88 86 84 82 79 77 75 73 71 69 66 65 65 64 62 59 56 54 52 50 48 46 44 42 40 37 33 29 28 28 27 27 28 29 29 30 32 39 47 59 69 71 66 57 49 41 33 25 15 5 354 348 350 359 6 12 18 13 10 8 5 5 6 5 5 6 6 6 4 4 3 2 1 360 360 1 2 1 0 359 359 359 360 0 2 3 3 2 2 2 2 2 2 2 1 0 360
103 102 100 97 95 92 90 87 84 81 79 77 74 71 70 65 63 63 62 62 61 58 56 52 50 47 44 43 41 40 38 35 32 30 30 29 28 26 24 24 25 27 30 36 43 54 63 68 65 58 47 36 27 16 7 356 346 340 342 350 359 7 13 10 6 3 360 0 1 1 1 1 1 1 359 359 359 357 357 355 354 354 355 356 355 354 354 354 354 354 355 356 356 356 356 355 355 355 355 355 356 355 355
105 103 102 100 97 94 90 88 85 81 78 75 72 70 68 63 60 60 60 59 58 55 51 48 44 41 39 36 37 37 37 36 34 33 32 30 28 25 22 21 22 26 32 39 46 53 60 63 63 58 46 31 18 4 353 343 336 333 336 345 356 4 10 9 4 359 356 355 356 357 357 357 357 357 356 356 355 354 353 352 351 350 349 348 348 349 348 349 349 349 349 350 349 350 350 350 350 350 349 348 348 348 348
108 106 103 101 98 94 90 87 84 82 78 74 70 67 65 62 60 58 56 54 51 48 43 40 35 30 29 28 29 32 35 36 35 33 31 30 27 24 22 20 20 25 34 43 51 55 58 57 57 53 44 28 10 352 339 331 327 328 333 343 355 4 8 5 359 355 352 352 352 352 354 353 353 353 352 353 351 349 349 348 347 345 345 344 344 344 343 343 343 343 344 344 344 344 345 344 345 345 344 343 341 340 341
110 108 105 102 99 95 91 87 83 80 78 75 71 68 65 62 59 57 53 52 46 39 33 30 24 19 19 19 21 26 31 32 31 30 29 28 27 24 22 20 20 25 35 47 52 55 54 52 49 45 36 21 2 346 336 328 325 326 333 345 356 4 7 2 355 351 349 348 348 348 349 349 349 349 348 349 348 346 345 344 344 344 344 343 342 341 339 338 338 339 339 340 340 340 340 340 340 339 339 338 337 336 335
116 113 109 106 102 98 93 88 84 81 78 74 72 70 68 63 60 55 47 45 40 33 26 17 11 10 12 14 17 21 24 25 25 25 25 26 26 25 23 21 22 27 37 48 51 51 47 44 39 34 24 9 355 345 338 331 326 328 335 345 354 0 3 358 351 348 347 345 345 345 345 346 346 345 346 346 346 345 343 342 341 341 340 339 338 337 336 335 334 335 335 336 336 336 336 336 335 335 335 334 334 333 331
121 117 114 111 108 104 101 95 92 89 83 77 73 71 69 65 60 54 45 39 33 24 13 4 3 6 10 12 15 16 17 15 14 16 19 23 26 26 25 24 24 29 37 43 44 42 38 33 28 22 12 359 353 348 341 334 328 328 334 342 351 357 357 354 349 346 345 343 342 342 342 342 342 342 344 344 343 342 340 340 339 338 336 337 335 334 333 332 332 332 332 332 332 333 332 332 332 331 331 331 330 329 329
120 116 112 109 107 106 107 106 103 98 92 88 82 78 72 62 56 48 34 27 21 12 3 2 6 11 14 15 15 14 10 5 2 3 8 16 23 26 26 26 27 30 34 35 34 30 25 21 17 12 3 354 353 351 344 334 327 325 330 338 347 353 354 352 348 346 344 342 341 341 340 340 340 341 341 341 340 339 339 338 337 337 336 335 334 334 332 331 331 331 330 329 329 329 329 329 329 329 328 328 328 327 327
112 106 100 97 97 99 100 100 96 92 89 90 89 84 73 57 44 33 21 14 10 10 10 12 15 18 19 19 17 13 6 359 354 353 357 6 16 23 26 25 26 28 28 26 23 20 16 13 11 8 359 351 351 352 346 334 325 323 327 335 344 350 351 350 348 346 344 343 341 340 340 340 341 340 340 339 339 338 339 338 337 337 336 335 334 333 332 331 331 330 330 329 328 327 327 327 326 326 326 326 325 325 324
98 92 87 85 85 88 88 85 80 76 73 73 73 70 59 46 38 31 26 21 20 21 22 22 24 25 25 24 20 14 6 359 353 350 352 359 9 18 23 23 22 22 21 18 16 14 13 11 10 6 356 347 346 348 345 335 326 323 326 333 341 347 349 349 348 346 344 344 343 341 341 340 340 340 339 339 338 338 339 338 337 337 337 336 335 334 333 333 332 332 331 330 329 328 326 325 324 324 324 323 323 323 322
85 79 75 74 75 78 77 73 67 62 58 55 55 52 47 41 35 32 29 28 28 29 28 27 27 28 27 25 22 18 12 5 359 355 356 359 6 13 19 19 17 15 14 12 11 10 9 8 6 360 348 341 341 343 343 338 330 325 326 332 339 345 348 350 349 347 345 345 344 343 342 342 341 341 341 340 339 339 339 339 338 338 338 338 337 335 335 334 334 333 332 331 329 328 326 325 324 323 323 322 322 322 321
78 70 66 63 63 68 68 64 58 52 48 43 40 38 37 33 30 28 27 28 29 30 30 28 26 25 24 22 20 18 16 11 7 3 2 3 6 11 14 14 11 8 7 7 7 5 3 359 354 346 339 337 337 339 342 340 333 327 327 332 338 345 348 350 350 349 346 345 345 345 344 344 343 343 343 342 341 340 340 340 340 340 340 339 338 337 336 336 335 334 333 332 330 328 327 326 324 323 323 322 322 321 321
72 62 58 53 51 54 58 56 52 47 42 35 29 25 20 19 18 19 20 22 23 23 24 23 22 20 18 15 12 12 12 12 10 8 5 5 7 10 11 9 6 3 2 2 1 359 354 348 341 336 335 336 339 343 345 343 335 329 328 332 338 344 348 349 349 349 347 346 346 346 346 346 345 344 345 345 344 343 342 342 342 341 342 340 340 339 339 338 336 335 334 333 331 330 329 327 326 325 324 323 322 321 321
59 53 53 47 41 39 44 46 45 43 39 32 26 19 12 6 3 6 9 11 12 11 13 14 13 12 11 7 4 2 3 7 10 9 4 3 7 9 7 5 2 359 358 357 355 352 346 340 335 334 338 342 347 351 350 344 337 331 331 333 338 343 346 347 347 348 347 346 346 346 345 346 346 346 346 346 345 345 344 344 344 343 343 342 341 341 341 339 338 337 336 334 333 332 331 330 329 328 326 325 324 323 321
25 32 44 41 32 21 16 15 19 29 36 31 25 17 11 3 358 358 360 3 3 2 1 2 3 4 4 3 359 356 357 5 9 9 5 3 6 7 4 1 358 355 353 353 350 346 341 337 335 337 343 349 355 357 352 344 337 333 333 334 337 341 344 345 345 346 347 346 346 345 346 346 346 346 347 346 346 346 346 346 346 345 345 344 343 343 341 340 340 340 339 337 335 334 332 331 330 329 327 327 326 325 324
348 3 30 34 18 358 342 332 329 347 23 28 25 18 11 3 357 354 352 358 359 357 355 356 356 356 358 359 356 355 358 6 10 10 7 6 5 4 1 357 354 351 349 349 347 343 339 337 337 339 344 351 355 355 350 343 337 333 333 334 335 337 339 341 343 344 346 346 345 346 347 347 347 347 348 348 348 348 347 348 348 347 347 346 346 345 344 343 343 343 342 341 340 338 335 333 331 330 329 328 327 327 327
331 340 9 18 357 333 315 306 305 318 354 20 21 15 7 360 353 347 344 353 357 355 354 353 350 347 350 354 357 360 4 11 16 13 8 6 4 1 359 355 351 349 348 347 345 341 338 337 338 340 343 348 351 351 348 341 336 333 333 333 333 334 336 339 341 344 346 347 347 348 349 350 349 349 350 350 350 350 350 350 350 349 349 349 349 348 347 347 346 346 346 346 345 342 339 338 336 335 333 330 328 327 327
310 315 326 327 312 299 287 285 291 303 333 11 15 9 0 354 347 341 336 349 354 353 352 351 348 345 350 357 3 8 13 19 18 13 7 2 358 356 356 353 351 349 348 346 343 340 338 338 339 340 342 345 348 348 346 340 335 333 333 332 332 332 335 339 342 345 348 351 352 353 354 353 353 353 353 353 353 354 354 353 353 353 352 352 352 352 351 351 350 349 349 348 346 344 342 342 341 339 337 333 331 329 328
285 296 292 279 268 259 257 268 286 297 316 360 8 4 359 357 355 352 350 356 359 0 1 1 358 357 0 5 10 14 16 14 8 2 357 353 351 351 352 352 350 349 347 345 343 340 339 339 340 341 342 343 344 345 344 340 335 333 333 332 332 333 336 341 345 349 355 359 360 360 359 358 358 358 359 359 358 358 358 358 357 356 355 355 355 355 354 353 352 351 350 348 347 346 345 345 343 341 339 336 334 334 332
249 261 263 263 260 258 266 315 308 305 321 349 357 360 4 4 7 14 24 24 16 12 9 7 5 3 4 8 12 12 7 0 354 350 347 344 343 345 348 350 350 349 347 346 344 342 340 340 340 340 340 340 340 342 344 340 336 333 333 333 333 335 338 344 349 356 4 8 7 5 5 4 3 3 4 4 3 2 1 0 359 358 357 356 356 356 355 354 353 352 351 349 348 347 346 345 344 342 340 339 338 337 337
228 234 246 258 268 288 346 303 305 323 360 5 360 1 9 12 14 21 31 32 23 11 4 2 3 6 8 5 2 358 355 351 347 344 341 340 341 345 350 350 349 347 347 345 344 342 340 339 338 337 336 336 337 341 346 342 337 333 334 334 334 336 341 347 355 5 14 15 12 10 9 8 8 7 7 6 5 3 2 1 359 358 357 356 355 355 354 352 351 351 350 349 348 347 346 345 343 342 341 340 339 339 339
224 225 235 254 272 291 271 259 274 360 72 47 23 19 23 23 19 17 22 24 15 4 360 1 4 6 4 356 351 348 346 344 342 340 339 340 344 350 353 351 348 345 344 343 342 340 339 338 336 336 336 337 339 344 350 343 336 333 334 335 336 338 343 352 0 11 19 18 15 13 12 10 9 9 7 6 5 3 1 360 358 357 356 355 354 353 352 351 350 349 349 348 347 346 345 344 343 341 340 339 338 338 338
228 228 228 240 252 255 218 207 121 93 86 55 37 32 31 23 12 3 4 4 1 358 360 1 1 359 356 352 349 347 344 341 339 337 340 345 352 356 354 349 345 343 342 341 340 340 339 338 338 338 339 341 345 350 353 342 333 332 334 335 336 340 346 354 4 13 22 22 18 15 13 11 10 9 7 6 4 3 1 359 357 356 355 354 352 352 351 350 349 347 347 347 347 346 345 344 342 341 340 338 337 337 337
226 230 230 235 244 247 102 98 98 91 78 48 37 35 29 15 3 355 356 357 359 360 358 355 354 354 353 353 352 350 345 342 338 339 345 353 357 356 350 345 342 341 341 341 340 340 340 341 341 341 340 342 347 352 353 341 332 331 333 334 337 342 348 357 6 15 23 23 20 16 14 12 11 9 8 6 5 3 1 359 357 355 354 353 352 351 350 348 348 347 347 347 346 345 344 342 341 340 339 338 337 336 336
216 222 229 235 240 181 100 101 102 103 97 53 37 42 33 14 3 358 359 1 4 6 2 354 351 351 353 354 353 352 348 345 342 343 349 355 356 352 346 342 341 341 342 341 341 341 342 343 342 340 338 339 344 350 350 341 333 331 333 334 338 344 351 359 7 16 24 25 23 19 17 14 12 10 9 8 6 4 2 360 358 356 354 353 351 350 349 349 348 346 346 345 344 344 343 341 339 338 337 336 336 335 334
196 210 225 233 227 166 119 117 123 132 137 4 22 46 43 19 7 3 3 6 10 10 5 357 352 351 353 354 353 353 350 347 346 346 348 352 352 348 344 341 341 343 344 342 341 341 342 341 340 338 336 340 345 350 350 343 337 333 333 334 339 345 353 1 8 15 22 25 24 21 19 16 14 12 11 10 8 6 3 0 358 356 353 352 351 350 349 349 348 346 346 344 343 342 341 340 338 337 336 335 334 333 333
176 196 213 219 198 156 136 138 144 151 203 338 354 27 45 25 12 9 9 11 12 12 7 2 357 354 353 353 353 352 351 348 346 346 346 349 350 348 343 341 342 344 344 342 340 339 339 340 340 340 342 347 351 354 353 346 340 335 333 334 341 349 357 3 7 12 16 19 19 18 16 15 14 12 12 11 9 6 3 0 357 355 353 351 350 350 350 349 348 346 344 343 342 341 340 338 336 335 334 333 332 332 333
175 178 182 180 170 155 144 147 154 166 323 341 353 19 46 32 18 12 12 14 14 12 9 8 4 359 355 351 351 350 349 349 349 350 352 353 352 348 344 342 342 343 343 341 339 338 338 340 343 348 352 356 358 358 355 349 341 335 332 336 346 355 1 3 5 6 8 11 12 11 11 11 11 11 11 11 8 5 2 359 356 354 351 349 348 348 347 346 346 345 344 342 341 339 338 337 335 334 332 331 331 330 330
174 164 161 161 156 151 149 153 155 145 348 347 357 16 42 32 18 12 16 18 16 9 4 1 360 357 352 350 349 350 351 354 358 2 4 360 352 346 342 340 339 340 339 338 337 337 338 341 347 354 359 0 360 359 355 348 340 335 333 341 351 359 2 2 1 1 1 3 4 5 5 6 6 7 7 8 7 4 1 358 356 353 351 349 347 346 346 345 344 344 343 341 340 339 337 336 334 333 331 329 329 328 327
171 159 159 159 157 153 151 153 149 118 6 350 356 10 31 21 4 7 16 20 9 354 342 337 340 347 351 353 353 353 355 358 2 5 4 357 349 342 338 335 333 333 333 334 336 338 340 343 348 354 359 358 358 357 355 346 338 335 337 346 354 359 0 359 358 357 355 356 358 0 2 2 2 2 2 3 3 2 360 358 356 354 351 349 347 346 345 344 343 342 342 341 340 338 337 335 334 332 331 329 328 327 326
166 160 162 159 159 160 161 160 156 147 135 332 339 352 23 7 354 360 16 23 360 342 333 325 325 345 4 5 360 354 353 354 357 358 355 349 343 338 334 331 330 330 332 334 338 342 344 345 348 352 354 354 354 354 353 344 339 340 347 353 358 360 0 359 356 353 350 350 353 356 358 359 359 358 358 359 360 360 359 357 356 354 353 351 349 347 345 344 343 342 341 340 339 338 337 335 334 333 331 330 329 327 326
163 161 161 159 161 166 170 171 176 191 213 237 247 234 203 21 4 360 116 99 10 355 348 340 344 32 36 21 7 356 353 352 352 351 348 344 340 338 335 334 334 336 340 345 348 349 348 347 348 349 350 349 349 350 349 345 347 353 358 2 4 4 3 359 354 349 345 345 347 350 353 355 355 354 353 354 357 358 357 357 356 355 353 352 350 347 345 343 342 341 340 339 338 337 337 336 335 333 332 331 330 328 327
166 166 164 164 167 172 179 186 200 216 225 229 225 210 188 156 99 101 140 129 20 15 18 26 56 78 57 34 19 7 360 353 351 351 350 347 344 343 343 345 349 353 356 359 359 356 352 349 347 346 345 344 343 343 344 354 4 7 5 7 9 8 3 357 351 344 339 338 341 344 348 349 350 349 349 350 353 355 356 357 356 355 354 352 350 347 345 343 342 341 340 339 339 338 337 336 335 335 334 333 332 331 330
172 173 173 174 177 180 185 196 212 226 230 226 219 206 184 165 150 145 172 292 13 28 34 46 60 71 55 44 35 23 6 355 355 357 357 356 355 355 358 1 3 4 3 3 360 356 351 348 345 343 342 340 338 335 342 13 22 12 357 356 359 359 355 350 345 339 333 332 334 338 342 343 344 344 344 346 349 352 354 356 356 355 353 351 349 347 345 344 343 342 341 341 340 339 338 338 337 336 335 335 334 333 332
176 178 181 183 185 187 189 200 216 229 229 221 212 200 184 171 160 159 187 270 349 25 35 42 47 49 47 53 49 31 9 356 358 2 4 4 5 7 8 6 4 1 359 357 354 351 348 346 343 341 340 341 338 333 348 48 30 355 327 325 333 339 342 342 339 334 328 326 327 331 335 337 338 339 340 342 346 349 352 354 354 353 352 350 349 347 346 345 344 343 343 342 342 341 340 340 339 338 338 337 336 335 334
176 179 181 183 186 188 194 206 220 229 225 211 196 184 177 172 168 170 185 231 339 17 28 33 37 43 52 64 62 38 6 354 359 5 8 7 7 7 5 2 358 354 351 349 347 346 345 343 340 339 340 344 344 342 114 77 13 331 313 313 318 327 333 336 335 330 324 321 322 325 328 331 333 335 337 339 341 344 347 350 351 351 351 350 349 348 347 346 345 345 345 344 344 343 342 342 342 341 340 339 338 337 336
176 178 180 183 186 192 202 214 225 228 214 188 165 153 152 159 166 175 186 210 359 21 25 24 26 34 46 56 57 33 358 349 355 2 7 7 5 3 1 357 353 349 346 344 343 343 344 342 338 337 341 349 355 12 133 77 354 324 313 312 316 323 329 331 330 327 322 319 319 322 325 327 330 332 334 335 335 338 342 345 347 348 349 349 349 348 347 347 346 346 346 345 345 345 345 344 344 343 342 341 339 338 337
178 180 183 185 190 198 209 220 227 219 192 164 145 134 130 135 144 155 169 173 49 26 20 16 15 20 30 36 33 13 350 343 348 356 1 3 3 2 360 356 353 349 346 345 345 346 345 343 340 339 343 354 3 31 126 45 345 327 317 316 319 323 326 327 326 323 320 319 320 323 325 326 327 328 329 329 329 332 336 339 342 345 348 349 349 348 347 347 347 346 346 346 346 346 345 345 345 344 344 343 341 340 339
183 184 187 190 196 204 213 220 217 199 176 156 141 129 120 115 114 115 116 119 102 53 19 9 7 11 17 20 14 360 344 338 342 349 353 356 358 360 1 359 356 354 352 351 351 351 349 345 342 341 345 356 3 9 26 354 338 328 322 319 320 322 324 323 322 320 319 320 323 325 325 323 323 324 324 324 325 327 331 335 339 343 346 348 349 348 346 346 346 346 346 346 346 346 345 345 345 344 344 343 343 342 342
188 189 192 197 202 208 212 212 201 184 169 156 143 129 115 102 96 94 96 100 103 90 34 10 9 13 14 11 3 351 337 332 337 343 346 349 353 358 2 3 2 2 1 359 356 353 348 343 338 338 344 353 357 354 340 335 331 326 322 320 320 321 321 319 318 318 318 321 325 325 324 321 320 320 320 320 321 324 327 331 336 341 344 347 348 347 345 344 345 345 345 345 345 344 344 344 344 344 343 343 344 343 343
191 193 198 203 206 207 204 198 187 176 166 157 146 132 114 92 81 80 84 86 92 91 59 34 28 24 21 13 4 347 330 327 332 338 340 344 348 355 1 6 8 8 6 2 356 349 343 336 329 325 330 343 352 352 341 332 327 324 321 321 321 321 319 317 316 316 317 321 323 323 321 318 317 317 318 318 319 321 324 329 334 339 342 344 346 346 344 343 343 343 343 343 343 343 342 342 342 342 342 343 343 344 344
193 197 202 206 206 201 194 185 177 169 163 156 150 145 136 106 76 70 78 80 81 79 70 60 53 44 34 23 10 349 328 327 331 334 336 340 346 353 0 6 9 9 6 2 355 347 339 330 318 308 306 333 353 356 344 334 328 324 321 323 324 323 320 318 316 317 318 319 321 320 318 316 316 315 315 315 316 319 322 327 332 336 339 341 344 344 343 342 341 341 341 341 342 341 341 341 341 341 341 342 342 342 342
196 201 203 204 200 193 185 175 169 164 159 154 155 162 169 166 151 125 124 106 90 80 79 72 64 56 46 31 12 349 331 329 330 331 334 339 345 352 359 5 9 9 7 5 1 353 343 331 316 300 290 352 6 360 343 335 330 326 324 328 330 330 327 323 321 321 321 321 320 319 317 315 314 313 313 314 316 318 322 326 330 333 336 338 341 342 341 340 340 340 340 340 340 340 339 339 339 339 339 340 340 340 340
202 204 204 200 193 185 178 169 163 161 157 155 160 172 186 193 199 192 170 146 116 92 83 74 62 54 48 35 12 346 332 328 329 331 335 341 346 352 357 3 8 11 11 12 12 11 12 20 74 117 133 125 48 350 341 334 329 328 331 334 338 341 341 335 331 330 328 326 323 321 318 316 314 314 314 315 317 320 323 326 329 331 333 335 338 340 340 339 339 340 340 339 338 338 338 338 338 338 338 338 337 337 337
206 208 206 199 190 181 174 166 163 161 159 159 167 181 194 202 202 184 161 137 112 94 86 78 62 48 45 39 12 340 330 329 331 335 338 343 348 353 357 0 5 11 17 22 28 35 52 81 107 124 139 142 29 340 336 331 331 333 336 339 343 347 347 343 340 337 335 332 329 326 322 320 318 317 318 320 322 324 325 327 327 328 330 332 334 336 337 338 338 339 340 339 337 336 337 336 336 336 336 335 335 335 334
208 208 206 198 189 180 172 167 165 165 164 166 176 187 197 200 192 176 153 129 108 94 91 91 86 69 57 60 34 344 334 336 339 343 345 349 350 352 356 360 3 8 18 32 48 64 83 102 116 123 122 64 338 329 326 327 331 335 337 338 339 340 338 337 337 336 336 335 334 330 327 324 323 323 324 325 326 327 327 327 327 327 328 329 330 332 334 335 336 337 338 338 336 335 335 335 335 334 334 334 333 333 332
208 207 203 196 188 181 174 170 168 169 169 172 180 187 192 191 184 171 154 136 115 101 103 112 117 111 90 74 47 2 348 347 349 351 353 359 357 351 348 350 355 5 13 34 65 93 104 113 118 112 54 343 328 322 321 325 330 333 331 331 330 330 329 330 331 331 331 332 332 330 328 327 327 327 327 327 327 327 326 326 325 326 326 327 328 329 330 331 332 334 336 336 335 334 333 333 333 333 332 332 331 331 330
209 206 202 195 188 181 176 173 172 173 173 175 180 184 187 184 176 167 160 164 162 145 127 125 123 120 112 81 47 13 1 358 360 2 4 4 360 351 334 327 337 355 5 23 67 115 123 124 120 70 338 328 324 323 324 326 326 325 324 324 324 324 326 327 327 327 327 326 325 324 323 324 325 325 325 325 325 324 324 324 324 324 324 325 326 326 326 327 328 330 332 333 333 333 333 332 332 331 331 330 330 329 329
210 207 202 195 187 181 178 176 175 175 176 179 181 183 183 178 170 164 166 178 185 182 152 134 129 126 118 97 56 29 16 8 7 10 14 6 354 345 340 338 351 1 355 355 24 118 141 151 301 317 323 327 331 336 337 328 320 317 318 318 319 321 323 325 326 325 323 321 319 318 318 319 319 320 320 321 321 321 321 321 321 322 322 323 324 324 324 324 325 326 327 329 330 331 332 331 330 329 329 328 328 328 327
210 207 203 196 188 182 180 179 179 178 180 182 183 182 180 175 171 169 172 182 190 194 186 158 145 142 133 108 79 56 37 22 13 9 10 10 359 348 353 21 41 11 335 353 338 327 338 341 325 324 325 332 342 349 340 325 317 315 315 317 318 320 321 323 322 321 320 319 318 317 316 316 316 316 317 317 317 318 318 319 319 320 321 321 321 322 322 322 322 323 324 325 327 328 330 330 328 326 326 326 326 327 327
210 207 204 198 190 185 183 182 181 181 183 186 186 184 180 179 179 180 182 187 193 198 202 208 200 168 159 119 94 82 70 41 21 11 7 9 11 12 14 24 116 165 63 86 48 330 314 324 325 323 323 333 342 337 326 322 319 318 319 320 321 322 321 320 319 318 319 319 319 318 317 316 315 315 315 315 315 316 317 317 318 318 319 319 319 319 320 320 320 320 321 322 323 324 326 327 325 323 323 324 325 325 326
210 207 204 199 193 189 186 185 183 184 185 188 189 187 184 186 188 189 190 192 198 205 212 221 227 213 170 127 101 95 95 70 36 14 3 2 13 29 66 112 16 6 14 42 74 220 272 307 319 322 319 331 335 327 322 323 323 322 322 323 324 324 321 318 317 317 317 317 317 316 316 315 315 314 314 313 313 314 315 316 316 317 317 317 317 318 317 317 318 318 318 319 319 320 322 322 321 320 320 322 323 323 324
209 206 203 200 196 192 189 188 188 188 188 190 190 187 185 190 192 193 196 200 207 215 222 226 229 221 180 138 112 107 110 104 75 16 356 352 360 15 39 85 90 35 3 349 300 242 251 324 329 320 313 325 328 324 320 322 323 321 320 322 323 322 319 316 315 315 314 313 313 313 313 313 313 312 312 312 311 312 312 313 314 315 315 316 316 316 316 316 316 316 316 316 316 317 318 318 317 317 318 319 320 321 322
209 205 203 201 198 195 192 192 193 193 192 193 191 189 188 192 195 197 201 207 213 219 224 227 228 222 195 164 128 117 120 122 106 29 354 344 338 340 1 43 140 165 183 215 231 250 288 332 349 344 302 313 316 316 317 319 318 316 315 319 320 318 314 311 310 311 311 311 311 312 311 312 312 311 311 310 310 310 310 311 312 313 313 314 314 315 315 315 314 314 314 313 313 313 314 314 314 315 316 317 317 318 319
210 207 204 202 199 196 196 196 197 197 196 194 193 192 192 195 199 202 206 212 217 219 220 223 226 221 204 185 164 135 130 137 129 44 2 349 313 277 268 267 267 258 243 233 242 273 303 343 16 246 300 312 313 313 316 316 314 312 313 316 316 313 309 308 308 309 311 312 312 313 313 313 313 312 311 310 310 310 310 310 311 312 313 313 314 314 314 314 313 312 311 311 310 310 311 311 311 312 313 314 315 316 317
211 208 206 204 201 199 198 200 202 202 199 196 195 196 197 199 202 206 211 215 218 218 218 221 223 220 209 200 193 184 163 163 171 359 360 26 189 217 239 247 250 249 250 258 268 276 286 302 246 227 325 320 316 315 315 312 309 309 311 312 311 309 306 307 309 311 313 314 315 315 315 315 315 313 312 311 311 311 311 311 312 313 314 314 314 314 314 313 312 310 309 308 308 308 308 308 308 309 310 311 312 314 315
212 210 207 205 203 202 201 203 205 206 203 200 199 200 201 202 204 207 211 214 216 217 219 222 223 219 212 207 207 208 201 209 252 325 346 207 201 214 233 237 240 245 250 259 268 274 277 270 261 252 128 279 301 310 312 309 307 307 307 308 308 307 307 309 311 313 315 316 316 316 316 316 316 315 314 313 313 313 313 314 315 316 317 317 316 315 313 312 310 309 308 307 307 307 307 306 307 308 308 310 311 312 313
213 210 208 207 206 205 205 206 208 209 206 204 203 204 205 205 205 207 210 212 213 214 217 220 221 218 212 211 212 217 226 233 241 258 303 238 222 231 245 243 243 247 253 259 266 272 276 276 277 275 264 228 233 280 294 304 308 309 308 306 307 307 308 310 312 314 314 314 314 315 315 315 315 315 315 315 315 315 316 318 319 320 320 319 317 315 314 312 310 309 309 308 308 308 308 306 306 307 308 309 310 311 313